Terug naar catalogus

STARLINK-3083

ActiefCommunicatieVLEO
NORAD 49158·PAYLOAD·🇺🇸 United States

Gelanceerd Sep 14, 2021 vanaf Vandenberg Space Force Base

Loading…

Volgende Passages (komende 24 uur)

TLE

VersSource: CelesTrak SupGP

Epoch: Sep 14, 2026, 21:34 UTC

1 49158C 21082AE  26257.89909722  .00353950  00000+0  52282-3 0  2571
2 49158  69.9495 353.5877 0007188 284.5654 106.8918 16.04491346    19

Volg STARLINK-3083 in realtime met AllMySat

Download on the App Store